Location: Trois-Rivi�res
(46.3500°N, 72.5500°W)
Time: 01:12:35
(UTC-04:00)

Envisat - Pass Details

Date: 08 October 2017
Orbit: 764 x 766 km, 98.2° (Epoch: 19 October)

Event Time Altitude Azimuth Distance (km) Brightness Sun altitude
Exits shadow 19:01:12 10° 96° (E) 2,272 4.8 -8.6°
Maximum altitude 19:04:14 17° 58° (ENE) 1,876 4.5 -9.1°
Drops below altitude 10° 19:07:23 10° 20° (NNE) 2,313 5.3 -9.7°
Sets 19:10:27 0° 1° (N) 3,244 6.3 -10.2°
